Weather History for KMHS - June, 2013

Change the Weather History Date:

Thursday, June 20, 2013

  Actual Average Record
Temperature  
Mean Temperature 54 °F 62 °F  
Max Temperature 71 °F 78 °F 95 °F (1970)
Min Temperature 37 °F 47 °F 31 °F (1991)
Degree Days  
Heating Degree Days 11 4  
Month to date heating degree days 54 110  
Since 1 June heating degree days 54 110  
Since 1 July heating degree days 5063 5662  
Cooling Degree Days 0 1  
Month to date cooling degree days 61 20  
Year to date cooling degree days 70 28  
Since 1 June cooling degree days 61 20  
Growing Degree Days 4 (Base 50)    
Moisture  
Dew Point 37 °F    
Average Humidity 54    
Maximum Humidity 85    
Minimum Humidity 30    
Precipitation  
Precipitation 0.00 in 0.04 in 0.64 in (1996)
Month to date precipitation T 0.92  
Year to date precipitation 6.41 26.32  
Sea Level Pressure  
Sea Level Pressure 30.07 in    
Wind  
Wind Speed 4 mph (NNW)    
Max Wind Speed 10 mph    
Max Gust Speed 22 mph    
Visibility 10 miles    
Events      
T = Trace of Precipitation, MM = Missing Value Source: NWS Daily Summary

Daily Weather History Graph

Daily Weather History Graph

Search for Another Location

Airport or City:

Trip Planner

Search our weather history database for the weather conditions in past years. The results will help you decide how hot, cold, wet, or windy it might be!

Date:

Astronomy

Jun. 20, 2013 Rise Set
Actual Time 5:36 AM PDT 8:45 PM PDT
Civil Twilight 5:02 AM PDT 9:19 PM PDT
Nautical Twilight 4:18 AM PDT 10:03 PM PDT
Astronomical Twilight 3:26 AM PDT 10:55 PM PDT
Moon 5:53 PM PDT (6/20) 3:08 AM PDT (6/20)
Length of Visible Light 16h 17m
Length of Day
15h 09m
Waxing Gibbous, 89% of the Moon is Illuminated
Jun 20
Waxing Gibbous
Jun 23
Full
Jun 29
Last Quarter
Jul 8
New
Jul 15
First Quarter

Hourly Weather History & Observations

Time (PDT) Temp. Windchill Dew Point Humidity Pressure Visibility Wind Dir Wind Speed Gust Speed Precip Events Conditions
12:56 AM 45.0 °F 43.5 °F 37.0 °F 74% 30.12 in 10.0 mi Variable 3.5 mph - N/A   Clear
1:56 AM 45.0 °F 43.5 °F 37.0 °F 74% 30.11 in 10.0 mi Variable 3.5 mph - N/A   Clear
2:56 AM 43.0 °F - 37.0 °F 80% 30.11 in 10.0 mi Calm Calm - N/A   Clear
3:56 AM 43.0 °F - 37.0 °F 80% 30.10 in 10.0 mi Calm Calm - N/A   Clear
4:56 AM 39.9 °F - 36.0 °F 86% 30.11 in 10.0 mi Calm Calm - N/A   Clear
5:56 AM 39.0 °F - 35.1 °F 86% 30.12 in 10.0 mi Calm Calm - N/A   Clear
6:56 AM 44.1 °F - 39.0 °F 82% 30.11 in 10.0 mi Calm Calm - N/A   Clear
7:56 AM 51.1 °F - 39.0 °F 63% 30.10 in 10.0 mi Variable 3.5 mph - N/A   Clear
8:56 AM 54.0 °F - 39.9 °F 59% 30.08 in 10.0 mi Calm Calm - N/A   Clear
9:56 AM 57.0 °F - 37.9 °F 49% 30.06 in 10.0 mi Calm Calm - N/A   Clear
10:56 AM 64.0 °F - 37.9 °F 38% 30.03 in 10.0 mi Calm Calm - N/A   Clear
11:56 AM 68.0 °F - 36.0 °F 31% 30.03 in 10.0 mi Variable 5.8 mph - N/A   Clear
12:56 PM 63.0 °F - 34.0 °F 34% 30.04 in 10.0 mi Variable 6.9 mph - N/A   Overcast
1:56 PM 70.0 °F - 37.0 °F 30% 30.01 in 10.0 mi Variable 5.8 mph - N/A   Partly Cloudy
2:56 PM 66.0 °F - 36.0 °F 33% 30.02 in 10.0 mi NNW 8.1 mph - N/A   Mostly Cloudy
3:56 PM 68.0 °F - 37.9 °F 33% 30.01 in 10.0 mi Variable 3.5 mph - N/A   Mostly Cloudy
4:56 PM 68.0 °F - 37.9 °F 33% 30.02 in 10.0 mi Variable 6.9 mph - N/A   Scattered Clouds
5:56 PM 66.0 °F - 39.0 °F 37% 30.03 in 10.0 mi North 9.2 mph - N/A   Mostly Cloudy
6:56 PM 62.1 °F - 37.9 °F 41% 30.05 in 10.0 mi Variable 6.9 mph 21.9 mph N/A   Partly Cloudy
7:56 PM 61.0 °F - 37.9 °F 42% 30.06 in 10.0 mi North 6.9 mph - N/A   Overcast
8:56 PM 57.9 °F - 37.0 °F 46% 30.07 in 10.0 mi NNW 8.1 mph - N/A   Clear
9:56 PM 55.0 °F - 37.0 °F 51% 30.10 in 10.0 mi Variable 4.6 mph - N/A   Clear
10:56 PM 53.1 °F - 37.0 °F 55% 30.09 in 10.0 mi Variable 3.5 mph - N/A   Clear
11:56 PM 52.0 °F - 37.0 °F 57% 30.09 in 10.0 mi Variable 4.6 mph - N/A   Clear